Location: Unspecified
(0.0000°N, 0.0000°E)
Time: 23:24:52
(UTC+00:00)

Vanguard 2 Rocket - All Passes

Search period start: 03 September 2015 00:00
Search period end: 13 September 2015 00:00
Orbit: 554 x 3331 km, 32.9° (Epoch: 02 September)

Date Brightness Start Highest point End Pass type
(mag) Time Alt. Az. Time Alt. Az. Time Alt. Az.
03 Sep - 00:26:08 10° SW 00:37:32 88° NW 00:56:35 10° NE visible
03 Sep - 02:42:11 10° W 02:56:44 40° NNW 03:14:54 10° NE visible
03 Sep - 05:05:57 10° WNW 05:19:37 21° NNW 05:32:10 10° NNE visible
03 Sep - 07:33:07 10° NNW 07:43:31 17° N 07:52:06 10° NE daylight
03 Sep - 09:52:34 10° NNW 10:04:05 29° NNE 10:11:41 10° ENE daylight
03 Sep - 12:09:54 10° NW 12:20:15 86° NNE 12:26:01 10° ESE daylight
03 Sep - 14:30:43 10° WSW 14:33:09 12° SW 14:35:00 10° SSW daylight
03 Sep - 21:17:59 10° S 21:22:29 16° SE 21:29:09 10° ESE night (unlit)
03 Sep - 23:27:30 10° SW 23:37:07 69° SE 23:54:08 10° ENE visible
04 Sep - 01:41:39 10° WSW 01:54:42 50° NNW 02:13:31 10° NE visible
04 Sep - 04:02:14 10° WNW 04:16:28 25° NNW 04:31:07 10° NNE visible
04 Sep - 06:29:18 10° NW 06:40:43 17° N 06:50:35 10° NE daylight
04 Sep - 08:50:56 10° NNW 09:02:56 24° NNE 09:11:35 10° ENE daylight
04 Sep - 11:08:37 10° NW 11:20:46 58° NNE 11:27:33 10° ESE daylight
04 Sep - 13:27:43 10° W 13:34:25 28° SW 13:38:49 10° SSE daylight
04 Sep - 22:29:23 10° SSW 22:37:19 46° SE 22:51:12 10° ENE night (unlit)
05 Sep - 00:41:56 10° WSW 00:53:18 64° NNW 01:11:49 10° NE visible
05 Sep - 02:59:49 10° WNW 03:13:37 30° NNW 03:29:51 10° NNE visible
05 Sep - 05:25:07 10° NW 05:37:30 18° N 05:48:52 10° NNE visible
05 Sep - 07:48:48 10° NNW 08:01:07 21° NNE 08:10:46 10° ENE daylight
05 Sep - 10:07:11 10° NW 10:20:39 44° NNE 10:28:36 10° E daylight
05 Sep - 12:25:44 10° WNW 12:35:39 53° SW 12:41:20 10° SE daylight
05 Sep - 21:31:52 10° SSW 21:37:57 28° SE 21:47:46 10° E night (unlit)
05 Sep - 23:42:55 10° WSW 23:52:35 83° NW 00:09:47 10° NE visible
06 Sep - 01:58:35 10° W 02:11:15 37° NNW 02:28:23 10° NE visible
06 Sep - 04:21:14 10° NW 04:34:08 20° N 04:47:02 10° NNE visible
06 Sep - 06:46:11 10° NNW 06:58:36 20° N 07:09:11 10° NE daylight
06 Sep - 09:05:35 10° NW 09:19:51 35° NNE 09:29:06 10° E daylight
06 Sep - 11:23:54 10° NW 11:36:31 86° SSW 11:43:19 10° SE daylight
06 Sep - 13:45:52 10° WSW 13:49:44 14° SW 13:52:33 10° S daylight
06 Sep - 20:35:35 10° SSE 20:38:44 14° SE 20:43:14 10° ESE night (unlit)
06 Sep - 22:44:26 10° SW 22:52:34 71° SE 23:07:29 10° ENE night (unlit)
07 Sep - 00:58:19 10° W 01:09:30 45° NNW 01:26:43 10° NE visible
07 Sep - 03:18:13 10° WNW 03:30:58 23° NNW 03:45:11 10° NNE visible
07 Sep - 05:43:10 10° NW 05:55:30 19° N 06:06:53 10° NE daylight
07 Sep - 08:03:47 10° NNW 08:18:21 29° NNE 08:28:52 10° ENE daylight
07 Sep - 10:22:06 10° NW 10:36:46 67° NNE 10:44:50 10° ESE daylight
07 Sep - 12:42:27 10° W 12:50:52 30° SW 12:56:06 10° SSE daylight
07 Sep - 21:46:29 10° SSW 21:53:10 45° SE 22:04:54 10° ENE night (unlit)
07 Sep - 23:58:49 10° WSW 00:08:26 58° NNW 00:24:56 10° NE visible
08 Sep - 02:16:17 10° WNW 02:28:16 27° NNW 02:43:19 10° NNE visible
08 Sep - 04:40:00 10° NW 04:52:07 19° N 05:04:11 10° NE visible
08 Sep - 07:01:51 10° NNW 07:16:10 25° NNE 07:27:46 10° ENE daylight
08 Sep - 09:20:19 10° NW 09:36:19 51° NNE 09:45:49 10° ESE daylight
08 Sep - 11:39:50 10° WNW 11:51:51 53° SW 11:58:34 10° SE daylight
08 Sep - 20:49:07 10° SSW 20:54:07 25° SE 21:01:57 10° E night (unlit)
08 Sep - 22:59:56 10° WSW 23:08:05 77° NNW 23:23:02 10° NE visible
09 Sep - 01:15:22 10° W 01:26:10 32° NNW 01:41:30 10° NE visible
09 Sep - 03:37:02 10° NW 03:48:43 19° N 04:01:22 10° NNE visible
09 Sep - 05:59:45 10° NNW 06:13:22 22° N 06:25:41 10° NE daylight
09 Sep - 08:18:34 10° NW 08:35:09 40° NNE 08:46:10 10° E daylight
09 Sep - 10:37:29 10° WNW 10:52:24 81° SW 11:00:29 10° SE daylight
09 Sep - 13:00:30 10° WSW 13:06:10 17° SW 13:10:04 10° S daylight
09 Sep - 19:53:28 10° SSE 19:55:09 11° SE 19:57:32 10° ESE visible
09 Sep - 22:01:34 10° SW 22:08:25 75° SE 22:21:04 10° ENE night (unlit)
10 Sep - 00:15:18 10° W 00:24:45 39° NNW 00:39:45 10° NE visible
10 Sep - 02:34:43 10° NW 02:45:42 21° N 02:58:43 10° NNE visible
10 Sep - 04:57:35 10° NNW 05:10:07 20° N 05:22:38 10° NE visible
10 Sep - 07:16:52 10° NW 07:33:19 33° NNE 07:45:42 10° E daylight
10 Sep - 09:35:20 10° NW 09:52:18 74° NNE 10:01:53 10° ESE daylight
10 Sep - 11:56:38 10° W 12:07:03 32° SW 12:13:19 10° SSE daylight
10 Sep - 21:03:40 10° SSW 21:09:19 44° SE 21:19:00 10° ENE night (unlit)
10 Sep - 23:15:57 10° WSW 23:24:02 50° NNW 23:38:05 10° NE visible
11 Sep - 01:33:12 10° WNW 01:43:16 24° NNW 01:56:22 10° NNE visible
11 Sep - 03:55:24 10° NW 04:06:42 18° N 04:18:56 10° NE visible
11 Sep - 06:15:17 10° NNW 06:30:51 28° NNE 06:44:16 10° ENE daylight
11 Sep - 08:33:24 10° NW 08:51:30 57° NNE 09:02:43 10° ESE daylight
11 Sep - 10:53:30 10° WNW 11:07:41 53° SW 11:15:39 10° SE daylight
11 Sep - 20:06:24 10° S 20:10:32 23° SE 20:16:38 10° E visible
11 Sep - 22:17:08 10° WSW 22:24:00 69° NNW 22:36:32 10° NE night (unlit)
12 Sep - 00:32:32 10° WNW 00:41:30 27° NNW 00:54:24 10° NNE visible
12 Sep - 02:53:24 10° NW 03:03:29 18° N 03:15:07 10° NE visible
12 Sep - 05:13:50 10° NNW 05:27:53 23° NNE 05:41:38 10° ENE visible
12 Sep - 07:31:42 10° NW 07:50:00 45° NNE 08:02:51 10° E daylight
12 Sep - 09:50:47 10° WNW 10:07:51 78° SW 10:17:26 10° SE daylight
12 Sep - 12:14:41 10° W 12:22:23 19° SW 12:27:27 10° S daylight
12 Sep - 21:18:48 10° SW 21:24:36 80° SE 21:35:03 10° ENE night (unlit)
12 Sep - 23:32:36 10° W 23:40:25 33° NNW 23:52:46 10° NE visible
